Regional Weather Roundup
Issued by NWS

Home | Current Version | Previous Version | Text Only | Print | Product List | Glossary On
Versions: 1 2 3 4 5 6 7 8 9 10 11 12 13 14 15 16 17 18 19 20 21 22 23 24 25 26 27 28 29 30 31 32 33 34 35 36 37 38 39 40 41 42 43 44 45 46 47 48 49 50
000
ASUS44 KFWD 121315
RWRTX
NORTH TEXAS HOURLY WEATHER ROUNDUP
NATIONAL WEATHER SERVICE FORT WORTH TX
700 AM CST TUE DEC 12 2017

NOTE: "FAIR" INDICATES FEW OR NO CLOUDS BELOW 12,000 FEET WITH NO
SIGNIFICANT WEATHER AND/OR OBSTRUCTIONS TO VISIBILITY.

TXZ118-119-121400-
DALLAS/FORT WORTH METROPLEX

CITY           SKY/WX    TMP DP  RH WIND       PRES   REMARKS
DFW AIRPORT    PTCLDY    45  29  53 N13       30.37R WCI  39
DALLAS LOVE    CLEAR     45  29  53 N12       30.38R WCI  39
FTW MEACHAM    CLEAR     45  28  51 N13G22    30.38R WCI  39
DAL-EXECUTIVE  CLEAR     46  30  53 N16       30.36R WCI  39
FTW-ALLIANCE   PTCLDY    42  28  57 N13       30.38R WCI  35
FTW-NAS-JRB    PTCLDY    45  28  51 N15       30.39R WCI  38
FTW-SPINKS     CLEAR     43  27  52 N13       30.39R WCI  36
ARLINGTON      CLEAR     44  29  55 N16       30.37R WCI  37
GRAND PRAIRIE  CLEAR     45  28  50 N12       30.39R WCI  40
ADDISON        CLEAR     43  28  56 N8G18     30.38R WCI  38
MESQUITE       CLEAR     43  28  56 NW8       30.17F WCI  38
LANCASTER      CLEAR     45  28  52 N15G21    30.37R WCI  38
$$

TXZ091>094-102>105-117-120-121-131>134-121400-
NORTH CENTRAL TEXAS

CITY           SKY/WX    TMP DP  RH WIND       PRES   REMARKS
SHRMAN/DENISON CLEAR     38  30  71 N7        30.40R WCI  33
GAINESVILLE    CLEAR     38  28  66 N8        30.41R WCI  32
BOWIE          CLOUDY    36  28  72 NW9       30.41R WCI  29
BRIDGEPORT     CLEAR     41  29  61 N10G17    30.43R WCI  35
DENTON         CLEAR     38  27  64 NW9       30.40R WCI  31
MCKINNEY       CLEAR     42  30  62 N9        30.37R WCI  37
BONHAM         CLEAR     40  27  60 N10       30.37R WCI  33
GREENVILLE     CLEAR     45  32  61 N10       30.35R WCI  39
ROCKWALL       CLEAR     44  31  60 N12G17    30.37R WCI  38
TERRELL        CLEAR     44  28  53 N9        30.36R WCI  39
WAXAHACHIE     CLEAR     44  30  58 N15G23    30.37R WCI  37
CLEBURNE       CLEAR     41  25  52 N10       30.39R WCI  35
GRANBURY       CLEAR     44  28  54 NW9       30.42R WCI  39
$$

TXZ083>090-098>101-113>116-127>130-139>142-154-155-121400-
WESTERN NORTH TEXAS

CITY           SKY/WX    TMP DP  RH WIND       PRES   REMARKS
WICHITA FALLS  CLOUDY    33  25  72 NW10      30.43R WCI  25
WF-KICKAPOO    CLOUDY    41  27  59 N9        30.45S WCI  35
VERNON         CLOUDY    35  20  55 NW7       30.46S WCI  29
ABILENE        CLOUDY    35  21  56 N8        30.44R WCI  29
ABILENE-DYESS  CLOUDY    34  17  49 W5        30.44R WCI  30
GRAHAM           N/A     36  27  68 CALM      30.42R
BRECKENRIDGE   CLEAR     42  26  53 N8        30.43R WCI  37
CISCO          CLOUDY    39  23  52 N7        30.42R WCI  34
EASTLAND       CLEAR     40  25  55 N9        30.42R WCI  34
RANGER         CLEAR     40  28  62 N10       30.41R WCI  33
MINERAL WELLS  CLEAR     38  26  62 N10       30.39R WCI  31
STEPHENVILLE   CLEAR     42  26  53 N9        30.41R WCI  36
COMANCHE       CLEAR     39  26  59 N13       30.41R WCI  32
BROWNWOOD      CLOUDY    41  25  52 N8        30.42R WCI  36
COLEMAN        CLEAR     40  22  49 N7        30.42R WCI  35
$$

TXZ143>147-156>162-174-175-121400-
CENTRAL TEXAS

CITY           SKY/WX    TMP DP  RH WIND       PRES   REMARKS
WACO           CLEAR     43  25  49 N8        30.37R WCI  38
WACO-TSTC      CLEAR     45  16  31 N7        30.37
WACO-MCGREGOR  CLEAR     41  25  53 NW8       30.37R WCI  36
HILLSBORO      CLEAR     42  27  55 N10       30.35R WCI  36
CORSICANA      CLEAR     46  29  51 N12       30.35R
MEXIA          CLEAR     44  26  49 NW3       30.33R
HEARNE         CLEAR     38  29  70 W6        30.35R WCI  33
CAMERON        CLEAR     41  27  58 N6        30.35R WCI  37
TEMPLE         CLEAR     41  25  53 N9        30.37R WCI  35
KILLEEN        CLEAR     40  23  51 NW9       30.36R WCI  34
KILLEEN-SKYLRK CLEAR     45  24  43 N9        30.37R
FORT HOOD      CLEAR     44  24  46 N13       30.33R WCI  37
GATESVILLE     CLEAR     41  21  45 NW6       30.39R WCI  37
HAMILTON       CLEAR     41  26  55 N10       30.39R WCI  35
LAMPASAS       CLEAR     42  22  45 N5        30.37R WCI  39
$$

TXZ095>097-106>112-122>126-135>138-148>153-164>167-121400-
EAST TEXAS

CITY           SKY/WX    TMP DP  RH WIND       PRES   REMARKS
PARIS          CLEAR     40  29  64 N13       30.34R WCI  32
SULPHUR SPRNGS CLEAR     44  31  61 N17       30.36R WCI  36
MOUNT PLEASANT CLEAR     43  31  60 NW10      30.33R WCI  38
GILMER           N/A     44  29  57 NW6       30.31R
MINEOLA        CLEAR     45  30  57 NW9       30.33R WCI  40
TYLER          CLEAR     45  27  49 N7        30.31R
LONGVIEW       CLEAR     45  31  58 NW9       30.28R
MARSHALL       CLEAR     45  28  52 N8        30.30R
ATHENS         CLEAR     43  27  52 N9G16     30.32R WCI  37
PALESTINE      CLEAR     43  30  61 N9        30.32R WCI  37
JACKSONVILLE   CLEAR     45  29  53 N7        30.31R
HENDERSON      CLEAR     46  29  51 N7        30.30R
CENTER         SUNNY     43  25  50 MISG      30.28R
NACOGDOCHES    CLEAR     38  29  70 CALM      30.29R
LUFKIN         CLEAR     43  29  57 NW3       30.28R
$$

SUPPLEMENTAL OBSERVATIONS (NWS FORT WORTH AREA)

CITY           SKY/WX    TMP DP  RH WIND       PRES   REMARKS
DENISON DAM      N/A     45  32  61 N16         N/A  WCI  37
CADDO GRASSLND   N/A     39  27  60 N3          N/A
PAT MAYSE LAKE   N/A     39  27  60 NW7         N/A  WCI  34
GREENVILLE       N/A     43  30  61 N15G24      N/A  WCI  35
CEDAR HILL       N/A     46  32  57 VRB7G20     N/A
POSSUM KINGDOM   N/A     39  27  60 NW7         N/A  WCI  34
GRANBURY         N/A     43  28  56 NW8G16      N/A  WCI  38
COMANCHE         N/A     39  25  56 N13         N/A  WCI  32
MCGREGOR         N/A     45  25  45 N10         N/A  WCI  39
TEMPLE           N/A     45  25  45 N10         N/A  WCI  39
LAKE LIMESTONE   N/A     46  28  49 N6          N/A
ATHENS           N/A     45  28  53 N7          N/A
$$

SUPPLEMENTAL OBSERVATIONS (NWS NORMAN AREA)

CITY           SKY/WX    TMP DP  RH WIND       PRES   REMARKS
GOODLETT         N/A     30  17  60 NW9       30.47R WCI  21
ODELL            N/A     27  21  76 W5        30.47S WCI  22
CROWELL          N/A     35  20  55 NW12      30.47S WCI  27
KNOX CITY        N/A     37  19  46 N9        30.47S WCI  31
SEYMOUR          N/A     35  25  65 N9        30.46R WCI  28
MILLERS CREEK    N/A     36  21  55 NW7         N/A  WCI  30
$$

SUPPLEMENTAL OBSERVATIONS (NWS SAN ANGELO AREA)

CITY           SKY/WX    TMP DP  RH WIND       PRES   REMARKS
WEINERT          N/A     35  19  52 N7        30.47R WCI  29
HASKELL          N/A     33  16  50 NW6       30.47R WCI  27
THROCKMORTON     N/A     38  26  61 N9        30.46R WCI  31
STAMFORD         N/A     32  18  56 W3        30.47R
CLYDE            N/A     32  20  61 N6        30.45R WCI  27
HAMBY            N/A     32  19  59 N3          N/A
IVIE RESERVOIR   N/A     43  25  49 N6          N/A  WCI  39
COLORADO BEND    N/A     41  23  48 N7          N/A  WCI  36
$$

SUPPLEMENTAL OBSERVATIONS (NWS SHREVEPORT AREA)

CITY           SKY/WX    TMP DP  RH WIND       PRES   REMARKS
CADDO LAKE       N/A     37  30  75 W1          N/A
LUFKIN           N/A     45  30  57 MISG        N/A
N SABINE NF      N/A     37  32  81 MISG        N/A
$$

SUPPLEMENTAL OBSERVATIONS ARE A COLLECTION OF AUTOMATED INSTRUMENTS
THAT ARE MAINTAINED BY A VARIETY OF FEDERAL AND STATE AGENCIES.
CERTAIN ELEMENTS...SUCH AS HUMIDITY VALUES AND SUSTAINED WIND
SPEEDS...MAY BE APPROXIMATED.





USA.gov is the U.S. government's official web portal to all federal, state and local government web resources and services.